Hourly Data Report for June 03, 2021

FISHER BRANCH (AUT)
MANITOBA
Current Station Operator: ECCC - MSC

51°05'00.100" N
97°33'16.200" W
253.00 m
50309J6
71442
WSZ

Download Data

Hourly Data (June 2021)
Hourly Data Report for June 3, 2021
TIME
LST
Temp Definition
°C
Dew Point Definition
°C
Rel Hum Definition
%
Precip. Amount Definition
mm

Wind Dir Definition
10's deg

Wind Spd Definition
km/h
Visibility Definition
km
Stn Press Definition
kPa
Hmdx Definition


Wind Chill Definition


Weather Definition


00:00 19.0 12.6 66 0.0 32 10   97.50     LegendNANA
01:00 17.6 13.4 77 0.0 29 6   97.50     LegendNANA
02:00 16.9 13.0 78 0.0 33 9   97.50     LegendNANA
03:00 15.0 12.5 85 0.0 29 5   97.45     LegendNANA
04:00 14.2 11.4 83 0.0 34 5   97.43     LegendNANA
05:00 13.7 11.5 87 0.0 29 2   97.47     LegendNANA
06:00 15.4 12.3 82 0.0 30 4   97.55     LegendNANA
07:00 19.2 13.5 70 0.0 34 7   97.61     LegendNANA
08:00 21.4 14.1 63 0.0 34 13   97.63 25   LegendNANA
09:00 22.9 13.8 56 0.0 36 9   97.64 26   LegendNANA
10:00 24.6 13.4 50 0.0 35 10   97.65 28   LegendNANA
11:00 25.5 12.7 45 0.0 32 7   97.65 28   LegendNANA
12:00 27.1 12.4 40 0.0 1 8   97.63 30   LegendNANA
13:00 27.6 11.6 37 0.0 32 4   97.62 30   LegendNANA
14:00 27.6 10.7 35 0.0 2 10   97.63 29   LegendNANA
15:00 29.3 10.2 31 0.0 4 3   97.62 31   LegendNANA
16:00 29.2 10.8 32 0.0 30 4   97.60 31   LegendNANA
17:00 29.6 11.5 33 0.0 6 5   97.59 32   LegendNANA
18:00 28.2 11.6 36 0.0 10 21   97.56 30   LegendNANA
19:00 27.3 12.2 39 0.0 13 20   97.55 30   LegendNANA
20:00 24.8 11.9 45 0.0 13 14   97.55 27   LegendNANA
21:00 22.6 11.6 50 0.0 15 11   97.54 25   LegendNANA
22:00 21.3 11.7 54 0.0 16 9   97.52     LegendNANA
23:00 20.0 11.9 60 0.0 16 9   97.47     LegendNANA

Notes on Data Quality.

Legend

  • E = Estimated
  • M = Missing
  • NA = Not Available*
  • [empty] = Indicates an unobserved value
Date modified: